Weather History for Key West, FL

Change the Weather History Date:

Saturday, February 16, 2013

  Actual Average Record
Temperature  
Mean Temperature 70 °F 71 °F  
Max Temperature 73 °F 76 °F 84 °F (1927)
Min Temperature 66 °F 66 °F 53 °F (1991)
Degree Days  
Heating Degree Days 0 0  
Month to date heating degree days 0 15  
Since 1 July heating degree days 5 66  
Cooling Degree Days 5 7  
Month to date cooling degree days 131 99  
Year to date cooling degree days 422 264  
Growing Degree Days 20 (Base 50)    
Moisture  
Dew Point 61 °F    
Average Humidity 77    
Maximum Humidity 97    
Minimum Humidity 57    
Precipitation  
Precipitation 0.03 in 0.05 in 1.18 in (1994)
Month to date precipitation 0.81 0.80  
Year to date precipitation 1.10 2.84  
Snow  
Snow 0.00 in - - ()
Month to date snowfall 0.0  
Since 1 July snowfall 0.0  
Snow Depth 0.00 in    
Sea Level Pressure  
Sea Level Pressure 29.98 in    
Wind  
Wind Speed 15 mph (North)    
Max Wind Speed 26 mph    
Max Gust Speed 36 mph    
Visibility 10 miles    
Events Rain    
T = Trace of Precipitation, MM = Missing Value Source: NWS Daily Summary

Daily Weather History Graph

Daily Weather History Graph

Search for Another Location

Airport:

Trip Planner

Search our weather history database for the weather conditions in past years. The results will help you decide how hot, cold, wet, or windy it might be!

Date:

Astronomy

Feb. 16, 2013 Rise Set
Actual Time 6:59 AM EST 6:22 PM EST
Civil Twilight 6:36 AM EST 6:45 PM EST
Nautical Twilight 6:10 AM EST 7:12 PM EST
Astronomical Twilight 5:43 AM EST 7:39 PM EST
Moon 10:58 AM EST (2/16) No Moon Set
Length of Visible Light 12h 08m
Length of Day
11h 22m
Waxing Crescent, 39% of the Moon is Illuminated
Feb 16
Waxing Crescent
Feb 17
First Quarter
Feb 25
Full
Mar 4
Last Quarter
Mar 11
New

Hourly Weather History & Observations

Time (EST) Temp. Dew Point Humidity Pressure Visibility Wind Dir Wind Speed Gust Speed Precip Events Conditions
12:39 AM 71.6 °F 68.0 °F 88% 29.94 in 10.0 mi North 5.8 mph - 0.02 in Rain Light Rain
12:53 AM 71.1 °F 68.0 °F 90% 29.94 in 10.0 mi NNE 5.8 mph - 0.02 in Rain Light Rain
1:26 AM 71.6 °F 68.0 °F 88% 29.92 in 10.0 mi North 5.8 mph - 0.01 in Rain Light Rain
1:48 AM 69.8 °F 68.0 °F 94% 29.92 in 10.0 mi North 6.9 mph - 0.01 in Rain Light Rain
1:53 AM 70.0 °F 68.0 °F 93% 29.92 in 10.0 mi North 6.9 mph - 0.01 in Rain Light Rain
2:19 AM 71.6 °F 68.0 °F 88% 29.91 in 10.0 mi North 6.9 mph - 0.00 in   Overcast
2:49 AM 71.6 °F 68.0 °F 88% 29.91 in 10.0 mi North 10.4 mph - 0.00 in   Overcast
2:53 AM 71.1 °F 68.0 °F 90% 29.91 in 10.0 mi North 8.1 mph - 0.00 in   Overcast
3:53 AM 70.0 °F 66.0 °F 87% 29.91 in 10.0 mi North 10.4 mph - N/A   Overcast
4:53 AM 70.0 °F 64.9 °F 84% 29.90 in 10.0 mi North 9.2 mph - N/A   Overcast
5:31 AM 69.8 °F 64.4 °F 83% 29.91 in 10.0 mi North 9.2 mph - N/A   Overcast
5:53 AM 70.0 °F 64.0 °F 81% 29.92 in 10.0 mi North 9.2 mph - N/A   Overcast
6:53 AM 70.0 °F 63.0 °F 78% 29.94 in 10.0 mi North 10.4 mph - N/A   Overcast
7:00 AM 69.8 °F 64.4 °F 83% 29.95 in 10.0 mi North 8.1 mph - N/A   Overcast
7:53 AM 70.0 °F 63.0 °F 78% 29.95 in 10.0 mi North 9.2 mph - N/A   Overcast
8:53 AM 70.0 °F 62.1 °F 76% 29.96 in 10.0 mi NNW 12.7 mph - N/A   Mostly Cloudy
9:53 AM 72.0 °F 62.1 °F 71% 29.98 in 10.0 mi North 13.8 mph - N/A   Clear
10:53 AM 72.0 °F 61.0 °F 68% 30.00 in 10.0 mi NNW 16.1 mph 24.2 mph N/A   Partly Cloudy
11:53 AM 71.1 °F 57.0 °F 61% 30.01 in 10.0 mi NNW 15.0 mph 25.3 mph N/A   Clear
12:53 PM 71.1 °F 57.0 °F 61% 30.00 in 10.0 mi NNW 15.0 mph 25.3 mph N/A   Scattered Clouds
1:53 PM 70.0 °F 57.0 °F 63% 30.00 in 10.0 mi NW 18.4 mph 27.6 mph N/A   Overcast
2:53 PM 70.0 °F 57.0 °F 63% 29.99 in 10.0 mi NNW 20.7 mph 27.6 mph N/A   Overcast
3:53 PM 70.0 °F 55.9 °F 61% 30.00 in 10.0 mi NW 21.9 mph 29.9 mph N/A   Mostly Cloudy
4:53 PM 70.0 °F 54.0 °F 57% 30.01 in 10.0 mi NNW 18.4 mph 29.9 mph N/A   Partly Cloudy
5:53 PM 69.1 °F 54.0 °F 58% 30.02 in 10.0 mi NW 18.4 mph 26.5 mph N/A   Clear
6:53 PM 69.1 °F 55.9 °F 63% 30.03 in 10.0 mi NW 20.7 mph 35.7 mph N/A   Scattered Clouds
7:53 PM 66.9 °F 55.9 °F 68% 30.06 in 10.0 mi NNW 18.4 mph 28.8 mph N/A   Mostly Cloudy
8:53 PM 66.0 °F 55.0 °F 68% 30.08 in 10.0 mi NNW 17.3 mph 29.9 mph N/A   Mostly Cloudy
9:53 PM 66.0 °F 54.0 °F 65% 30.10 in 10.0 mi NNW 17.3 mph 25.3 mph N/A   Scattered Clouds
10:53 PM 66.9 °F 53.1 °F 61% 30.10 in 10.0 mi NNW 17.3 mph 27.6 mph N/A   Mostly Cloudy
11:53 PM 66.0 °F 51.1 °F 59% 30.11 in 10.0 mi NNW 23.0 mph 29.9 mph N/A   Scattered Clouds